This is the latest recevied weather packets stored in our database for station/object N9CQL. If no packets are shown the sender has not sent any weather packets the latest 10 day(s).
| Time | Temp. | Humidity | Pressure | Rain* | Wind** | Luminosity | Snow |
|---|---|---|---|---|---|---|---|
| 1777781352 | 6.67° C | 68% | 1015 hPa | 0 mm | - | 0 W/m² | - |
| 1777781049 | 6.11° C | 69% | 1015 hPa | 0 mm | - | 0 W/m² | - |
| 1777780747 | 6.11° C | 70% | 1015.3 hPa | 0 mm | - | 0 W/m² | - |
| 1777780443 | 6.11° C | 70% | 1015.1 hPa | 0 mm | - | 0 W/m² | - |
| 1777780140 | 6.11° C | 70% | 1015 hPa | 0 mm | - | 0 W/m² | - |
| 1777779838 | 5.56° C | 70% | 1015.1 hPa | 0 mm | - | 0 W/m² | - |
| 1777779534 | 6.11° C | 69% | 1014.9 hPa | 0 mm | - | 0 W/m² | - |
| 1777779232 | 6.11° C | 70% | 1014.9 hPa | 0 mm | - | 0 W/m² | - |
| 1777778930 | 6.11° C | 70% | 1015.1 hPa | 0 mm | - | 0 W/m² | - |
| 1777778629 | 6.11° C | 69% | 1015.2 hPa | 0 mm | - | 0 W/m² | - |
| 1777778326 | 6.11° C | 69% | 1015.2 hPa | 0 mm | - | 0 W/m² | - |
| 1777778023 | 6.11° C | 69% | 1015.2 hPa | 0 mm | - | 0 W/m² | - |
| 1777777719 | 6.11° C | 68% | 1015.3 hPa | 0 mm | - | 0 W/m² | - |
| 1777777416 | 6.67° C | 68% | 1015.4 hPa | 0 mm | - | 0 W/m² | - |
| 1777777113 | 6.67° C | 67% | 1015.1 hPa | 0 mm | - | 0 W/m² | - |
| 1777776810 | 6.67° C | 67% | 1015.1 hPa | 0 mm | - | 0 W/m² | - |
| 1777776507 | 6.67° C | 66% | 1015.4 hPa | 0 mm | - | 0 W/m² | - |
| 1777776204 | 6.67° C | 67% | 1015.1 hPa | 0 mm | - | 0 W/m² | - |
| 1777775901 | 7.22° C | 67% | 1015.2 hPa | 0 mm | - | 0 W/m² | - |
| 1777775598 | 7.22° C | 65% | 1015.4 hPa | 0 mm | - | 0 W/m² | - |
| 1777775295 | 7.22° C | 66% | 1015.1 hPa | 0 mm | - | 0 W/m² | - |
| 1777774995 | 7.22° C | 64% | 1015.1 hPa | 0 mm | - | 0 W/m² | - |
| 1777774691 | 7.22° C | 64% | 1015.2 hPa | 0 mm | - | 0 W/m² | - |
| 1777774388 | 7.22° C | 64% | 1015.2 hPa | 0 mm | - | 0 W/m² | - |
| 1777774085 | 7.78° C | 65% | 1015 hPa | 0 mm | - | 0 W/m² | - |
* Rain latest hour (hover to see other rain measurements)
** Current wind speed in m/s (hover to see current wind gust speed)